Location: McFarlands Corners
(41.4117°N, 81.3382°W)
Time: 14:28:52
(UTC+00:00)

Transit 2A - Pass Details

Date: 17 February 2026
Orbit: 590 x 954 km, 66.7° (Epoch: 7 March)

Event Time Altitude Azimuth Distance (km) Brightness Sun altitude
Rises 00:42:08 0° 338° (NNW) 3,609 9.8 -19.7°
Reaches altitude 10° 00:47:10 10° 13° (NNE) 2,604 8.6 -20.6°
Maximum altitude 00:48:48 11° 29° (NNE) 2,502 8.4 -20.9°
Enters shadow 00:48:52 11° 29° (NNE) 2,501 8.4 -20.9°
